Location: ??????
(30.5519°N, 47.7720°E)
Time: 17:16:54
(UTC+00:00)

ERS-2 - Pass Details

Date: 24 January 2021
Orbit: 492 x 497 km, 98.6° (Epoch: 01 March)

Event Time Altitude Azimuth Distance (km) Brightness Sun altitude
Rises 14:43:00 0° 22° (NNE) 2,573 5.4 -5.8°
Reaches altitude 10° 14:45:11 10° 30° (NNE) 1,687 4.4 -6.3°
Maximum altitude 14:48:35 39° 100° (E) 751 2.6 -7.0°
Drops below altitude 10° 14:51:59 10° 170° (S) 1,676 4.9 -7.7°
Sets 14:54:07 0° 178° (S) 2,553 5.9 -8.1°
